Wind_Speed
10 10 10 10 9 8 7 6 5 4 3 2 2 3 4 5 6 7 8 8 9 9 9 10 10 10 10 9 8 7 7 6 5 5 4 3 3 4 4 4 4 4 5
10 10 10 9 9 8 7 7 6 5 3 2 2 2 3 4 5 6 7 8 8 9 9 9 9 9 9 9 8 8 7 6 5 4 4 3 3 3 3 3 3 3 4
10 10 10 9 10 9 8 8 7 5 4 3 2 2 2 3 4 5 6 7 7 8 8 8 8 8 9 9 8 8 7 7 6 4 4 3 3 3 3 3 2 2 2
11 11 11 10 10 10 9 8 7 6 5 4 3 3 2 2 3 4 5 5 6 7 8 8 8 8 8 8 8 7 7 7 6 5 4 3 3 2 2 2 2 1 1
11 10 10 10 10 10 9 8 9 7 6 5 4 3 2 1 2 3 4 4 4 5 6 7 7 7 7 7 8 7 6 6 6 5 4 3 2 2 1 1 1 1 1
10 9 9 10 10 9 9 9 9 8 7 6 5 4 3 2 1 1 3 3 3 4 5 6 6 6 7 7 7 7 7 6 5 4 4 3 2 2 1 1 1 1 2
9 10 10 10 10 9 9 8 8 9 8 7 6 5 4 3 2 1 1 2 3 3 4 5 5 5 6 6 6 6 6 6 6 5 4 3 2 2 2 2 3 3 3
10 10 9 9 9 9 9 9 9 9 9 8 7 6 5 4 3 2 1 1 2 3 4 4 4 5 5 6 6 6 6 6 5 4 3 3 3 3 4 3 4 4 4
11 10 9 9 8 9 9 10 10 9 10 9 8 7 6 5 4 2 2 2 2 2 3 4 4 4 5 5 6 6 6 5 5 4 4 4 4 4 5 4 4 4 5
10 10 10 9 8 9 10 10 10 10 10 9 9 9 7 6 5 4 3 2 2 2 3 3 4 4 4 5 5 5 6 6 5 5 5 6 6 6 6 6 6 6 6
10 11 10 10 9 9 11 10 10 10 10 10 9 9 8 7 6 5 4 3 3 3 3 4 4 4 4 5 5 6 6 6 6 6 7 7 7 7 7 7 8 8 7
11 11 11 10 10 10 11 11 10 10 10 10 10 10 9 8 8 7 6 5 5 5 5 5 5 5 6 6 6 6 7 7 7 7 7 7 7 7 8 8 8 8 8
12 11 11 11 11 11 11 12 11 11 11 11 11 11 10 10 9 9 8 7 7 7 6 7 7 7 7 7 7 8 8 8 8 8 8 8 8 8 8 9 9 9 9
12 12 12 11 11 11 11 12 12 12 11 12 11 12 11 11 10 10 9 9 8 8 8 8 9 9 9 9 9 9 9 9 9 9 9 9 9 9 10 10 10 10 11
12 12 13 12 12 11 12 12 13 12 12 12 12 12 12 12 11 11 11 10 10 10 10 10 10 10 10 10 11 10 10 10 11 11 11 11 11 11 12 11 12 12 13
12 12 13 13 13 13 13 12 13 13 13 13 13 13 14 13 13 12 13 12 12 12 12 12 12 12 12 12 12 12 12 12 12 12 12 12 13 13 13 14 14 15 15
12 12 13 13 13 14 14 14 13 13 13 12 12 14 15 15 15 14 14 15 14 14 14 14 14 14 14 14 14 14 14 14 14 15 15 15 15 16 16 16 17 18 18
13 13 13 13 14 14 14 13 14 14 14 13 14 15 15 15 15 15 15 15 15 16 16 15 15 15 16 16 16 16 16 16 17 17 17 18 18 18 18 19 20 20 21
13 13 13 13 14 15 15 14 15 14 14 15 15 15 15 15 15 15 16 16 17 17 17 17 16 17 17 18 18 18 18 18 18 19 19 20 20 21 21 21 22 23 24
13 13 13 14 14 15 15 16 16 16 16 16 16 16 15 15 16 17 17 17 18 18 17 17 17 17 18 18 19 19 20 20 21 21 21 22 22 23 23 23 24 25 26
12 12 12 13 14 15 16 16 17 17 17 17 16 17 17 17 18 18 18 19 19 19 19 19 19 19 19 20 20 21 21 21 22 22 23 23 24 25 25 26 27 28 29
13 13 13 13 14 15 16 17 17 18 18 18 18 18 18 18 19 20 20 20 20 20 20 20 20 21 21 21 21 21 22 22 23 24 25 25 26 27 28 29 30 31 32
13 14 14 14 15 15 16 16 17 18 18 18 18 19 19 20 20 20 20 20 21 21 21 21 21 21 22 22 22 23 24 24 25 26 26 27 28 29 30 31 33 34 34
14 14 15 15 15 16 16 17 17 18 18 19 19 19 20 20 20 21 21 22 22 22 22 23 23 23 23 24 25 26 26 27 28 28 29 30 31 31 32 34 35 36 37
14 15 16 17 17 18 18 18 18 19 19 19 19 19 20 21 21 22 22 23 23 24 25 25 25 25 26 27 27 28 28 30 30 31 32 32 33 34 35 36 37 38 39
16 17 17 17 17 18 18 19 20 20 20 20 20 20 21 22 22 23 23 23 25 26 27 27 27 28 29 30 30 31 31 32 33 33 34 35 36 37 38 39 39 40 41
Wind_Direction
233 233 237 239 239 234 224 226 231 239 247 270 312 356 2 9 17 20 22 21 24 28 32 38 43 45 50 54 58 64 68 74 86 97 108 125 140 150 163 178 188 198 211
232 231 232 235 234 227 222 224 228 235 239 253 288 331 354 7 14 21 25 24 26 29 32 36 43 47 50 55 55 57 62 64 72 84 103 120 133 137 148 164 182 193 208
234 233 235 236 229 225 223 222 224 229 236 247 273 298 336 357 7 20 27 29 30 33 34 37 42 48 50 53 53 54 55 55 59 71 93 108 121 131 143 152 160 177 197
234 235 234 233 232 226 226 224 224 226 233 240 257 275 309 350 2 17 25 26 29 35 39 40 43 49 50 49 51 51 49 50 56 64 78 96 115 135 133 137 138 145 193
233 235 234 229 228 226 228 229 226 226 232 239 248 267 266 311 352 15 19 17 23 36 39 39 41 45 45 44 45 44 44 45 48 54 61 78 97 106 123 151 170 217 248
233 231 232 227 225 226 228 226 224 226 230 238 243 254 241 257 304 359 16 16 20 26 27 32 36 37 37 38 39 40 40 39 41 40 48 65 72 69 45 316 289 276 266
232 229 231 225 221 225 226 224 226 226 228 232 238 246 237 240 258 303 360 18 24 23 23 25 26 27 26 27 29 29 31 36 40 46 48 48 47 28 345 315 297 293 285
228 229 231 225 223 229 225 223 228 226 227 228 235 239 237 239 245 263 309 345 359 9 18 19 16 16 18 18 17 16 20 24 28 32 32 25 18 3 348 328 311 301 292
231 231 231 227 229 230 225 226 227 227 228 230 232 231 234 238 244 259 282 298 317 343 2 12 7 3 4 6 8 9 9 7 8 5 357 348 342 336 330 324 316 300 289
232 233 231 228 234 231 228 231 231 234 233 233 232 227 226 233 246 254 264 278 300 318 334 350 358 354 353 352 353 354 354 350 342 335 332 329 325 319 312 309 309 303 297
239 238 233 233 234 234 233 235 231 232 233 233 234 230 229 233 239 248 257 269 285 301 314 322 330 329 329 333 336 337 337 335 331 325 319 315 315 313 313 309 303 303 298
247 243 239 233 233 235 232 234 235 233 234 234 235 230 232 237 242 248 256 266 277 287 296 306 316 319 316 318 320 322 324 325 325 323 319 316 310 308 310 310 306 304 303
243 240 241 239 234 236 234 233 233 233 234 234 235 234 238 242 246 250 256 265 273 280 286 293 302 308 309 308 309 311 312 315 317 317 317 314 306 304 305 305 301 301 301
242 242 240 239 238 239 237 233 233 234 234 237 239 237 241 244 248 252 256 265 274 279 284 289 294 298 300 302 305 307 307 308 311 312 309 307 305 302 302 302 300 299 297
245 246 242 240 241 238 236 235 236 235 234 238 242 242 242 245 249 255 257 264 273 277 281 286 289 292 293 295 298 300 301 303 304 307 306 304 302 301 300 299 298 297 295
249 249 245 242 239 238 237 240 240 239 237 242 245 247 248 250 254 258 260 263 269 273 278 281 284 287 289 291 292 293 296 298 300 302 303 303 302 301 299 298 297 298 296
249 250 246 242 239 239 240 243 243 245 243 248 251 250 251 253 255 260 263 264 267 271 276 281 282 283 286 288 289 290 291 292 294 295 296 297 298 298 295 295 294 295 295
248 250 249 244 240 240 241 241 243 247 250 252 256 254 255 256 257 261 265 264 267 271 275 278 280 280 282 285 287 288 288 289 289 290 291 293 295 295 293 293 294 294 293
247 248 250 247 244 243 244 243 243 249 254 256 257 259 258 258 259 264 266 267 268 271 274 275 277 279 281 283 285 287 286 287 288 289 290 292 293 293 291 291 292 292 292
248 249 250 248 246 246 246 247 250 254 256 258 258 259 260 259 263 265 267 268 270 271 271 274 276 279 282 283 285 286 285 286 287 289 291 291 292 292 291 291 291 291 291
251 250 252 253 249 247 246 249 252 254 257 258 260 261 259 260 264 266 267 268 270 271 272 273 275 278 281 282 283 284 285 285 287 288 290 291 291 292 291 291 291 291 292
253 252 254 257 256 252 250 252 256 256 257 257 259 259 260 264 265 266 267 268 269 272 273 273 274 276 278 280 282 284 285 285 286 287 289 290 291 292 291 291 291 292 293
257 256 256 259 259 256 254 257 259 259 260 261 261 260 261 265 267 267 267 267 269 270 272 273 275 277 278 279 281 283 284 286 287 288 289 291 292 292 293 293 293 294 294
258 258 258 259 260 260 257 259 261 263 263 265 263 263 264 267 267 269 270 269 270 272 273 274 275 277 279 280 282 283 284 286 287 289 290 291 292 293 293 293 294 294 294
263 263 261 261 260 261 261 261 262 264 265 266 267 268 269 269 269 270 270 269 271 273 274 275 276 277 279 280 282 284 285 286 287 289 290 291 292 293 293 294 294 294 295
266 265 264 264 264 264 263 263 263 263 265 265 267 269 270 269 270 270 269 270 272 273 274 276 278 280 281 283 285 284 284 286 288 289 290 290 291 292 293 294 294 295 295
Height
5875 5877 5879 5880 5881 5883 5884 5885 5885 5886 5887 5887 5888 5887 5887 5886 5885 5884 5882 5881 5879 5877 5876 5875 5874 5873 5871 5870 5870 5869 5869 5868 5868 5869 5869 5870 5871 5872 5873 5875 5876 5878 5879
5874 5876 5877 5878 5880 5881 5882 5883 5885 5886 5887 5887 5887 5887 5887 5886 5885 5884 5883 5882 5880 5879 5877 5876 5875 5874 5873 5873 5872 5871 5871 5870 5870 5870 5870 5871 5873 5873 5874 5875 5877 5878 5879
5873 5874 5875 5877 5878 5879 5881 5882 5884 5885 5886 5887 5887 5887 5887 5887 5886 5885 5884 5883 5882 5880 5879 5878 5877 5876 5875 5874 5874 5873 5872 5872 5871 5871 5871 5872 5873 5874 5875 5876 5877 5878 5879
5871 5873 5874 5875 5877 5878 5879 5881 5883 5884 5885 5886 5887 5887 5887 5887 5886 5886 5885 5884 5883 5882 5881 5880 5879 5878 5877 5876 5875 5875 5874 5873 5872 5872 5872 5872 5873 5874 5875 5876 5877 5878 5879
5869 5871 5872 5874 5875 5877 5878 5880 5881 5883 5884 5885 5886 5886 5886 5887 5886 5886 5885 5885 5884 5883 5882 5881 5881 5880 5879 5878 5877 5876 5875 5874 5873 5873 5873 5873 5874 5875 5876 5877 5878 5878 5878
5867 5869 5870 5872 5874 5875 5877 5878 5880 5881 5883 5884 5885 5886 5886 5886 5887 5886 5886 5885 5885 5884 5884 5883 5882 5882 5881 5880 5879 5878 5877 5876 5875 5874 5874 5874 5875 5876 5877 5877 5877 5878 5878
5865 5867 5869 5871 5872 5874 5875 5877 5878 5880 5881 5883 5884 5885 5885 5886 5886 5886 5886 5886 5886 5886 5885 5884 5883 5883 5882 5881 5880 5879 5878 5877 5876 5876 5876 5876 5876 5877 5877 5877 5877 5878 5878
5864 5866 5867 5869 5871 5872 5873 5875 5877 5878 5880 5881 5883 5884 5885 5885 5886 5886 5886 5886 5886 5886 5885 5885 5884 5884 5883 5882 5881 5880 5879 5878 5878 5877 5877 5877 5877 5877 5877 5877 5877 5877 5878
5863 5864 5866 5868 5869 5870 5872 5874 5875 5877 5878 5880 5881 5882 5884 5884 5885 5886 5886 5886 5886 5886 5886 5885 5885 5884 5883 5883 5882 5881 5880 5880 5879 5878 5878 5878 5877 5877 5877 5876 5876 5877 5877
5861 5863 5864 5866 5867 5869 5871 5872 5874 5875 5877 5878 5880 5881 5882 5884 5884 5885 5886 5886 5886 5886 5886 5885 5885 5884 5884 5883 5882 5882 5881 5880 5879 5879 5878 5878 5877 5876 5876 5875 5875 5875 5875
5860 5861 5863 5864 5865 5867 5869 5870 5872 5874 5875 5876 5878 5880 5881 5882 5883 5884 5885 5885 5885 5885 5885 5885 5885 5884 5884 5883 5882 5881 5881 5880 5879 5878 5877 5877 5876 5875 5875 5874 5873 5873 5872
5858 5859 5861 5862 5863 5865 5867 5869 5870 5872 5873 5874 5876 5878 5879 5881 5882 5883 5884 5884 5884 5884 5884 5884 5884 5883 5883 5882 5881 5881 5880 5879 5878 5877 5876 5876 5875 5874 5873 5872 5871 5871 5870
5855 5857 5859 5860 5861 5863 5864 5866 5868 5870 5871 5873 5874 5876 5877 5879 5880 5881 5882 5882 5883 5883 5883 5883 5882 5882 5881 5881 5880 5879 5879 5878 5877 5876 5875 5874 5873 5872 5871 5870 5869 5868 5868
5853 5854 5856 5857 5859 5861 5862 5864 5866 5867 5869 5870 5872 5874 5875 5877 5878 5879 5880 5880 5881 5881 5881 5881 5880 5880 5880 5879 5878 5878 5877 5876 5875 5874 5873 5872 5871 5870 5869 5868 5867 5866 5865
5850 5852 5853 5855 5856 5858 5860 5862 5863 5865 5866 5868 5869 5871 5873 5874 5875 5876 5877 5878 5878 5878 5879 5878 5878 5878 5877 5877 5876 5875 5875 5874 5873 5872 5871 5870 5869 5868 5866 5865 5865 5864 5863
5847 5849 5850 5852 5853 5855 5857 5859 5860 5862 5864 5865 5867 5868 5869 5871 5872 5873 5874 5874 5875 5875 5875 5876 5875 5875 5874 5874 5873 5873 5872 5871 5870 5869 5868 5867 5866 5865 5863 5862 5861 5860 5859
5845 5846 5847 5849 5850 5852 5854 5856 5857 5859 5860 5862 5863 5864 5866 5867 5868 5869 5870 5871 5871 5871 5872 5872 5872 5871 5871 5870 5870 5869 5869 5868 5867 5866 5865 5864 5863 5861 5860 5859 5858 5856 5855
5842 5843 5844 5846 5847 5849 5850 5852 5854 5855 5857 5858 5860 5861 5862 5863 5864 5865 5866 5866 5867 5867 5867 5868 5868 5867 5867 5866 5866 5865 5865 5864 5863 5862 5861 5860 5858 5857 5856 5855 5853 5851 5850
5839 5840 5841 5842 5844 5845 5847 5849 5850 5852 5853 5855 5856 5857 5858 5859 5860 5861 5861 5862 5862 5863 5863 5863 5863 5863 5862 5862 5861 5861 5860 5859 5858 5857 5856 5855 5853 5852 5850 5849 5848 5846 5844
5835 5837 5838 5839 5841 5842 5844 5845 5847 5848 5850 5851 5852 5853 5854 5855 5855 5856 5857 5857 5858 5858 5858 5858 5858 5858 5857 5857 5856 5855 5855 5854 5853 5852 5851 5849 5848 5846 5844 5843 5841 5839 5837
5833 5834 5835 5836 5837 5839 5840 5842 5843 5844 5845 5846 5847 5848 5849 5850 5851 5851 5852 5852 5852 5852 5853 5853 5853 5852 5852 5851 5850 5850 5849 5848 5847 5846 5845 5843 5841 5839 5838 5836 5834 5832 5829
5829 5831 5832 5833 5834 5835 5836 5837 5838 5840 5840 5841 5842 5843 5844 5845 5846 5846 5846 5846 5847 5847 5847 5847 5847 5846 5846 5845 5844 5843 5843 5842 5841 5840 5838 5836 5834 5832 5830 5828 5826 5823 5821
5826 5827 5828 5829 5830 5831 5832 5833 5834 5834 5835 5836 5837 5838 5839 5839 5840 5840 5840 5841 5841 5841 5841 5841 5840 5840 5840 5839 5838 5837 5836 5835 5834 5832 5830 5828 5826 5824 5822 5819 5817 5814 5812
5822 5823 5824 5825 5826 5826 5827 5828 5828 5829 5830 5831 5831 5832 5833 5833 5834 5834 5834 5834 5835 5835 5835 5834 5834 5834 5833 5832 5831 5830 5829 5827 5826 5824 5822 5820 5818 5815 5813 5810 5807 5804 5801
5818 5819 5819 5820 5821 5821 5822 5822 5823 5824 5824 5825 5826 5826 5827 5827 5828 5828 5828 5828 5828 5828 5828 5827 5827 5826 5826 5825 5823 5822 5821 5819 5818 5816 5814 5811 5809 5806 5803 5800 5797 5793 5790
5813 5814 5814 5815 5816 5816 5817 5817 5818 5818 5819 5819 5820 5821 5821 5821 5821 5821 5821 5821 5821 5821 5820 5820 5819 5819 5818 5816 5815 5814 5812 5810 5809 5807 5804 5802 5799 5796 5793 5789 5786 5782 5778